パンスターズ彗星

P/2015 HG16 ( PanSTARRS )

English version
Home page
Updated on November 13, 2016

---------------------------------------------------------------------

・ プロフィール

発見日 2015年4月20日
発見光度 20.7等
発見者 Pan-STARRS 1 telescope (Haleakala)

・ 写真集

・ 軌道要素

Epoch 2014 July 2.0 TT = JDT 2456840.5
T 2014 June 28.97445 TT                                 MPCW
q   3.1317742            (2000.0)            P               Q
n   0.09400685     Peri.   48.15290     -0.26917945     -0.92187644
a   4.7903037      Node    59.52584     +0.75969972     -0.38112329
e   0.3462264      Incl.   18.86850     +0.59194490     +0.06992046
P  10.48
From 36 observations 2015 Mar. 24-2016 Apr. 9, mean residual 0".2.

・ 光度変化

        m1 = 12.5 + 5 logΔ + 10.0 log r

---------------------------------------------------------------------

軌道要素はM.P.E.C. 2016-K18に掲載されたものです。
光度グラフはComet for Windowsで作成したものです。

---------------------------------------------------------------------

Copyright(C) Seiichi Yoshida (comet@aerith.net). All rights reserved.